(458323) = 2001 WW103 = 2010 VZ105

Discovered at Mount Lemmon on 2010-11-05 by Mt. Lemmon Survey.

Orbit

Orbit type: Main Belt

Note: WebGL enabled browser required.

epoch2023-09-13.0
epoch JD2460200.5
perihelion date2019-12-18.86895
perihelion JD2458836.36895
argument of perihelion (°)245.63745
ascending node (°)194.83547
inclination (°)5.31764
eccentricity0.1589143
perihelion distance (AU)2.2682494
Tisserand w.r.t. Jupiter3.3
ΔV w.r.t. Earth (km/sec)9.6
semimajor axis (AU)2.6968114
mean anomaly (°)303.58763
mean daily motion (°/day)0.22255020
aphelion distance (AU)3.125
period (years)4.43
P-vector [x]0.16651758
P-vector [y]0.93493272
P-vector [z]0.31332525
Q-vector [x]-0.98575291
Q-vector [y]0.16548843
Q-vector [z]0.03007944
absolute magnitude17.76
phase slope0.15
uncertainty0
referenceMPO 780128
observations used129
oppositions10
arc length (days)8028
first opposition used2001
last opposition used2023
residual rms (arc-secs)0.70
perturbers coarse indicatorM-v
perturbers precise indicator003Ek
first observation date used2001-11-18.0
last observation date used2023-11-11.0
computer nameMPCLINUX
JD of orbit computation2457432.096800
perihelion JD uncertainty (days)6.9362E-05
argument of perihelion uncertainty (°)3.6727E-05
ascending node uncertainty (°)3.1850E-05
inclination uncertainty (°)3.2114E-06
eccentricity uncertainty 2.6036E-08
perihelion distance uncertainty (AU)6.5975E-08
Minimum Orbit Intersection Distances (in AU)
for orbit epoch: 2460200.5, reference: E2023-VL1
Mercury1.96458
Venus1.5518
Earth1.28877
Mars0.72708
Jupiter2.14265
Saturn6.78184
Uranus15.7071
Neptune27.2375

Observations

132 total observations over interval: 2001 11 18.12091 – 2023 11 11.347457
These data are available for download (format description).

